{"data":{"norad_id":67344,"epoch":"2026-09-19T06:36:09.224064Z","epoch_age_seconds":181240,"freshness":"STALE","line1":"1 67344U 26003L   26262.27510676  .00005772  00000+0  21908-3 0  9990","line2":"2 67344  42.9996 213.5083 0001563 263.3208  96.7466 15.27581382 38434","mean_motion":15.27581382,"eccentricity":0.0001563,"inclination_deg":42.9996,"raan_deg":213.5083,"arg_perigee_deg":263.3208,"mean_anomaly_deg":96.7466,"bstar":0.00021908,"rev_number":3843,"period_min":94.266663430702,"perigee_km":481.97255509759,"apogee_km":484.11736057761,"semimajor_km":6861.1819578376,"source":"CELESTRAK","updated_at":"2026-09-20T09:00:43.513068Z"}}